Погода в Большой Лумари

Россия / Республика Марий Эл     57°06′31″N   48°42′50″E
темп.,
°C
ветер,
м/с
пор.,
м/с
влажн.,
%
обл.,
%
осадки,
мм/ч
давл.,
гПа
погр.,
м
16 апреля, пт
пт1600:00+5св71488100 0.0 1024447
03:00+5св71385100 0.0 1025467
06:00+5всв6138429 0.0 1026505
09:00+7всв79675 0.0 1027670
12:00+10всв78535 0.0 1027920
15:00+11всв67455 0.0 10271088
18:00+8всв59525 0.0 1027388
21:00+4св410695 0.0 1029206
17 апреля, сб
сб1700:00+2св49740 0.0 1029180
03:00+1св48780 0.0 1030143
06:00+2всв38740 0.0 1030222
09:00+7всв57500 0.0 1030651
12:00+10св56420 0.0 10291175
15:00+11св45410 0.0 10281352
18:00+8св35555 0.0 1027126
21:00+5ссв35692 0.0 102867
18 апреля, вс
вс1800:00+3ссв34700 0.0 102762
03:00+2ссв33767 0.0 102738
06:00+3ссв24775 0.0 1027110
09:00+8св455832 0.0 1027663
12:00+10св675171 0.0 10261506
15:00+8св8859100 0.0 10281199
18:00+6св71048100 0.0 1029844
21:00+3всв7135096 0.0 1030594
19 апреля, пн
пн1900:00+1всв6135814 0.0 1032511
03:00−1всв612640 0.0 1033468
06:000в612610 0.0 1034630
09:00+3в810360 0.0 10351342
12:00+5в79320 0.0 10351637
15:00+6в78280 0.0 10341736
18:00+4в59370 0.0 1034471
21:000в410510 0.0 1036227
20 апреля, вт
вт2000:00−1в411520 0.0 1036278
03:00−1в411530 0.0 1036279
06:000в511480 0.0 1037412
09:00+5вюв79330 0.0 10361014
12:00+8вюв78310 0.0 10351310
15:00+8вюв7930100 0.0 10331359
18:00+6вюв6114165 0.0 1032520
21:00+3вюв61550100 0.0 1033420